Lapse_Rate
6.5 6.6 6.7 6.7 6.9 7.2 6.9 6.7 6.8 6.8 6.7 6.7 6.8 6.7 6.6 6.5 6.5 6.3 6.9 6.7 6.6 6.5 6.4 6.6 6.4 6.4 6.4 6.5 6.4 6.3 6.4 6.5 6.5 6.5 6.3 6.3 6.4 6.4 6.3 6.2 6.1 6.1 6.1
6.3 6.3 6.3 6.4 6.5 6.4 6.6 6.8 6.9 6.7 6.6 6.7 6.7 6.7 6.7 6.7 6.7 6.4 6.1 6.6 6.4 6.5 6.5 6.4 6.6 6.5 6.5 6.4 6.2 6.1 6.3 6.1 6.2 6.3 6.3 6.3 6.1 6.1 6.3 6.4 6.2 6.2 6.1
6.2 6.2 6.1 6.3 6.2 6.1 6.2 6.5 6.5 6.5 6.5 6.3 6.2 6.2 6.1 6.2 6.5 6.5 6.1 6.5 6.5 6.6 6.6 6.5 6.5 6.3 6.5 6.3 6.4 6.3 6.1 6.0 6.1 6.1 6.2 6.2 6.2 6.1 6.1 6.1 6.2 6.4 6.0
6.1 6.2 6.1 6.1 6.0 6.2 6.1 6.2 6.3 6.2 6.1 6.0 5.9 6.1 6.2 6.1 6.5 6.6 6.6 6.4 6.3 6.7 6.3 6.1 6.0 6.2 6.3 6.5 6.3 6.5 6.1 6.1 6.1 6.0 5.8 5.8 5.7 5.6 5.5 5.4 5.5 5.5 5.8
6.0 6.0 5.8 6.0 6.0 6.0 6.1 5.9 5.9 5.9 5.9 6.0 6.0 5.8 6.3 6.2 6.5 6.6 6.4 6.2 6.2 6.2 6.0 6.0 5.6 5.7 6.1 5.7 5.7 5.7 5.8 6.3 5.3 5.1 5.2 5.2 4.9 4.8 5.1 4.8 4.8 5.1 4.9
6.0 6.0 5.7 5.7 6.1 5.8 5.9 5.7 5.9 5.8 5.9 5.9 5.8 5.9 6.4 6.4 6.6 6.7 6.5 6.3 6.2 6.0 6.0 5.8 5.3 5.5 6.0 6.0 5.8 5.7 5.7 5.5 5.4 4.8 4.7 5.0 5.4 5.7 5.7 5.1 4.7 4.8 4.8
6.0 6.1 5.8 6.1 6.0 5.9 5.8 5.9 5.8 5.9 6.1 5.9 6.1 6.1 6.2 6.4 6.6 6.7 6.9 6.7 6.7 6.4 6.0 5.8 5.7 5.5 5.8 5.9 5.7 5.5 5.5 5.3 4.9 4.8 5.0 5.1 5.0 5.2 5.5 4.8 4.6 4.3 4.2
6.0 6.1 5.9 5.9 5.8 5.6 5.8 6.0 6.0 5.9 6.1 6.0 5.8 6.1 6.3 6.7 6.8 6.7 6.9 6.8 6.6 6.4 6.2 6.2 6.1 6.0 5.8 5.9 5.7 5.7 5.6 5.6 5.6 5.2 5.2 5.2 5.1 5.2 5.3 4.9 4.7 4.3 4.5
6.0 6.0 6.0 5.8 5.8 5.8 5.8 5.9 6.0 5.8 6.1 6.0 5.7 5.9 6.2 6.1 6.5 6.5 6.6 6.5 6.4 6.3 6.2 6.2 6.2 6.2 6.3 5.9 5.9 5.7 5.7 5.8 5.6 5.3 5.6 5.6 5.4 5.6 5.4 5.3 5.1 4.9 5.0
5.9 6.0 6.1 6.0 6.0 5.9 6.0 6.1 6.2 6.2 6.2 6.4 6.3 6.6 6.3 6.3 6.3 6.4 6.6 6.5 6.4 6.2 6.0 6.2 6.1 6.2 6.0 6.2 6.2 5.7 5.5 5.7 5.6 5.7 5.4 5.3 4.8 5.1 5.5 5.1 5.3 5.3 5.6
6.2 6.1 6.1 5.9 5.9 6.0 6.0 6.1 6.1 6.2 6.0 6.1 6.1 6.2 6.3 6.4 6.1 6.1 6.0 6.3 6.0 6.2 6.1 6.2 6.6 6.3 6.4 6.6 6.2 5.6 5.9 6.0 5.7 5.7 5.2 5.3 5.0 4.9 4.5 4.8 5.2 5.7 5.6
6.2 6.3 6.2 6.1 6.2 6.3 6.3 6.2 6.1 6.3 6.2 6.1 6.2 6.5 6.5 6.3 6.3 6.3 6.3 6.5 6.5 6.5 6.5 6.2 6.3 6.1 6.1 6.2 6.5 6.1 6.0 6.0 6.0 5.7 5.2 5.3 5.4 5.1 4.7 4.8 5.5 5.6 5.8
6.3 6.2 6.4 6.4 6.4 6.3 6.2 6.2 6.2 6.4 6.4 6.7 6.6 6.6 6.4 6.4 6.3 6.4 6.4 6.2 6.1 6.2 6.5 6.3 6.4 6.4 6.3 6.2 6.4 6.3 6.1 6.2 5.9 5.8 5.5 4.7 5.3 5.1 5.2 5.1 5.6 5.8 6.1
6.5 6.4 6.2 6.2 6.2 6.1 6.1 6.3 6.4 6.6 6.6 6.5 6.7 6.6 6.4 6.5 6.5 6.4 6.4 6.5 6.5 6.7 7.1 6.5 6.5 6.6 6.8 6.4 6.3 6.1 6.2 6.1 6.0 5.9 5.2 5.2 5.0 5.1 5.1 5.3 5.8 6.1 6.4
6.5 6.4 6.2 6.1 6.1 6.2 6.4 6.7 6.9 6.8 6.7 6.8 6.8 6.6 6.5 6.5 6.5 6.5 6.7 7.1 6.9 7.1 7.1 6.6 6.6 6.6 6.9 6.5 6.4 6.3 6.3 5.6 5.7 5.6 4.8 5.0 5.2 5.3 5.1 5.9 6.2 7.1 7.0
6.4 6.5 6.3 6.4 6.5 6.6 6.8 6.8 6.9 6.9 6.9 6.7 6.8 6.7 6.7 6.4 6.5 6.5 6.7 6.9 6.8 6.6 6.8 6.9 6.9 6.7 6.4 6.3 6.2 6.0 5.9 5.7 5.3 5.1 4.9 5.1 5.2 5.5 5.8 6.1 7.3 7.0 7.0
6.9 6.7 6.9 6.7 6.7 6.8 6.7 6.7 6.7 6.6 6.6 6.5 6.4 6.2 6.3 6.1 6.4 6.3 6.5 6.6 6.5 6.7 7.0 7.1 6.9 6.1 6.1 6.5 6.2 6.3 5.7 5.7 5.1 5.1 5.2 5.2 5.8 5.8 6.2 6.9 7.1 6.7 6.8
7.0 6.8 6.7 6.7 6.7 6.5 6.3 6.1 5.9 5.9 5.9 6.0 6.1 6.0 5.9 6.4 6.3 6.1 6.3 6.5 6.5 7.0 7.2 6.6 6.3 6.1 6.6 6.4 5.8 6.1 5.5 5.8 5.2 5.3 5.7 5.7 5.8 6.1 7.0 7.1 6.8 6.9 6.8
6.7 6.5 6.5 6.2 5.9 5.7 5.7 5.7 5.8 5.9 5.8 5.7 6.0 6.3 6.4 6.2 6.2 6.5 6.3 6.3 6.5 6.6 6.9 6.6 6.4 6.9 6.8 6.8 6.6 6.0 5.5 5.4 5.3 5.8 5.8 5.7 5.9 6.4 7.2 7.0 6.8 6.5 6.4
6.1 6.0 5.9 5.8 5.9 5.7 5.5 5.6 5.5 5.6 5.6 5.8 6.0 6.1 6.0 6.2 6.0 6.3 6.6 6.8 6.7 7.1 6.5 6.7 7.0 7.0 6.4 6.5 6.2 6.1 5.7 5.3 5.8 5.7 5.7 5.7 6.3 7.0 7.3 6.8 6.6 6.1 5.7
6.0 5.9 5.4 5.4 5.4 5.5 5.7 5.8 5.5 5.5 5.5 5.8 5.6 6.4 6.3 6.4 6.6 6.8 7.2 7.4 6.4 6.3 6.3 6.5 6.6 6.8 6.7 6.5 6.3 5.9 5.3 5.8 6.0 5.9 6.0 6.2 6.8 7.0 6.6 6.3 6.1 5.8 5.5
5.5 5.4 5.4 5.4 5.3 5.4 5.7 5.6 5.3 5.4 5.9 6.1 6.0 6.2 6.3 6.4 6.6 7.4 7.0 6.2 6.1 6.5 6.7 6.9 7.0 6.9 6.9 6.7 6.1 6.0 5.9 6.4 6.3 6.5 6.3 7.3 6.9 6.4 6.4 6.4 6.0 5.6 5.5
5.3 5.2 5.0 5.2 5.3 5.2 5.3 5.5 5.5 5.6 5.9 5.9 6.0 6.0 6.5 7.0 7.4 6.8 6.6 6.1 6.3 6.4 6.9 7.1 7.1 7.3 6.9 6.4 6.2 6.3 6.0 5.6 6.2 6.8 6.5 6.7 6.8 6.6 6.5 6.0 5.9 5.7 5.8
5.1 4.8 4.6 4.7 5.0 5.1 5.1 5.3 5.3 5.5 5.7 6.0 6.2 6.9 7.2 7.2 6.7 6.2 5.9 6.2 6.4 6.8 7.2 7.6 7.3 7.2 6.4 6.3 6.2 5.9 5.8 5.9 6.8 6.5 7.0 7.1 6.8 6.7 6.3 5.8 6.0 6.2 6.8
4.9 4.9 4.8 4.8 5.1 5.2 5.1 5.3 5.3 5.5 5.8 6.6 7.0 7.0 6.6 6.3 6.0 6.0 6.3 6.4 6.5 6.9 7.2 7.3 6.7 6.6 6.3 6.0 6.0 5.5 5.7 6.8 7.4 7.3 7.4 7.0 6.6 6.3 6.3 6.0 6.4 6.9 7.0
4.5 4.7 5.0 5.2 5.3 5.4 5.6 5.7 5.6 6.0 6.6 6.6 6.3 6.3 6.4 6.2 6.4 6.6 6.6 6.7 7.0 7.1 6.7 6.7 6.6 6.7 6.3 6.0 5.7 5.6 6.6 7.1 7.5 7.2 7.6 6.8 6.8 6.3 6.4 6.3 6.8 7.3 7.3
Wind_Speed
9 14 12 15 16 18 16 13 13 12 10 11 9 8 9 7 8 8 12 16 14 10 12 12 12 12 15 15 14 15 15 15 14 14 15 12 11 9 9 10 10 10 9
12 11 9 11 13 15 17 14 11 8 8 10 8 10 10 8 8 7 8 11 13 14 16 15 14 15 17 18 19 16 15 15 12 11 12 12 11 11 11 8 7 7 8
14 13 9 10 12 14 12 12 11 10 7 9 7 8 9 9 9 8 8 10 11 13 16 17 18 19 20 21 20 19 15 15 13 13 11 10 10 9 7 6 5 6 5
20 14 11 10 15 13 14 9 8 8 8 7 6 6 5 9 7 9 11 8 9 12 13 14 17 20 24 24 22 21 17 16 14 13 12 11 9 9 9 8 7 7 8
20 12 10 11 14 10 9 9 8 7 8 8 6 8 5 4 6 10 10 13 10 12 13 19 23 25 23 22 22 21 18 16 15 14 15 15 13 10 9 10 9 8 8
20 14 12 9 13 9 9 9 9 10 9 6 6 3 4 3 5 6 9 10 7 9 12 18 21 20 24 24 22 19 19 18 17 16 14 13 13 12 12 10 9 8 9
18 10 9 9 9 8 8 10 8 9 6 7 3 1 2 3 4 6 2 3 5 6 10 16 18 18 21 23 23 23 22 20 18 15 14 12 11 11 11 10 8 7 7
17 12 9 9 9 7 11 9 10 7 5 4 5 2 2 3 4 6 2 3 3 3 2 13 17 18 19 17 17 20 22 22 21 20 17 15 14 11 10 9 8 7 6
13 13 11 8 8 7 6 8 9 8 5 4 7 3 2 4 2 2 3 2 3 1 2 3 6 13 15 19 19 20 22 19 19 19 18 19 17 16 13 11 10 10 4
11 14 11 10 8 6 7 5 8 9 5 6 3 4 1 2 3 2 3 3 4 4 3 1 2 7 17 15 21 20 25 24 22 18 16 17 17 15 15 12 13 13 14
9 10 10 7 7 5 7 8 8 7 6 3 3 2 1 1 1 1 2 1 2 3 3 4 6 4 7 12 17 22 23 22 19 17 16 17 17 17 13 12 12 12 10
4 7 5 3 4 4 4 4 5 6 5 6 6 6 4 3 4 3 2 3 3 2 3 3 6 9 15 18 18 26 28 23 19 15 15 21 21 19 15 11 12 10 8
5 6 6 5 5 5 5 5 4 4 5 5 7 6 6 7 3 5 3 2 2 2 2 2 3 7 13 18 22 27 29 24 18 15 15 22 23 20 14 12 12 11 8
7 9 6 5 4 5 4 4 5 5 6 6 8 6 6 7 5 5 4 4 2 3 3 2 2 6 6 13 22 25 23 27 20 22 21 23 23 20 17 14 14 13 10
5 8 8 8 8 7 5 4 4 5 5 5 5 6 6 4 4 5 5 5 5 4 7 5 4 8 7 10 18 19 20 21 24 28 22 20 22 21 17 14 15 13 9
9 8 8 7 6 4 4 4 4 4 5 3 2 3 4 4 5 5 5 5 4 4 3 3 4 4 11 11 18 17 22 27 30 30 26 22 19 19 17 15 15 13 11
8 8 6 5 4 3 2 2 3 4 5 5 4 6 7 7 5 4 4 5 6 5 4 1 2 4 7 11 16 19 22 23 23 27 27 24 20 19 16 16 15 13 12
7 7 5 4 3 2 1 1 3 5 6 7 7 6 8 3 7 6 5 7 7 7 3 4 2 3 4 7 11 13 15 17 19 24 23 22 21 19 16 17 15 13 15
7 6 5 4 3 3 2 2 4 5 7 7 7 8 9 7 8 4 4 4 4 2 3 3 3 5 7 12 13 11 12 17 18 25 23 20 19 18 16 16 15 15 15
4 4 4 3 2 1 3 4 5 6 7 8 9 8 8 6 8 6 5 6 5 5 4 5 5 7 8 8 10 11 8 8 10 18 19 18 19 16 16 17 16 16 16
3 1 2 2 2 3 4 6 6 8 9 9 9 9 8 8 9 8 4 6 6 5 6 7 7 8 6 10 13 7 7 9 8 12 9 15 16 17 16 15 15 15 14
1 2 3 3 4 4 2 6 7 9 8 8 8 7 6 7 8 9 11 11 10 10 10 8 9 12 14 12 7 11 11 11 6 11 8 8 17 11 15 15 16 16 14
2 4 4 4 5 6 6 6 9 8 7 7 9 7 7 5 6 6 6 7 9 12 16 14 15 15 13 15 14 14 14 14 8 10 11 7 10 7 12 19 22 18 15
4 3 5 5 6 6 4 7 6 8 8 8 7 7 9 7 8 7 7 8 6 4 3 6 12 15 14 18 21 19 19 13 9 11 14 5 5 6 13 16 18 17 14
5 6 4 7 9 4 6 8 8 7 7 9 7 7 8 8 9 12 6 8 6 6 4 3 8 14 14 23 23 12 11 10 8 9 7 4 4 4 3 9 15 15 14
6 6 8 8 7 9 7 12 11 7 7 6 5 7 13 12 10 12 10 8 9 8 8 8 5 10 19 21 28 20 15 12 10 5 5 4 8 5 4 4 14 16 13
Wind_Direction
196 201 200 191 193 186 206 194 222 202 218 231 232 236 237 239 262 259 128 156 167 190 194 188 184 177 164 153 148 146 141 141 135 128 120 113 101 83 71 75 79 77 72
200 207 211 207 198 211 204 207 206 208 219 225 217 223 240 239 239 250 163 163 176 192 188 183 186 181 175 162 154 156 154 144 138 135 135 133 131 127 119 108 92 82 77
210 212 210 209 206 209 217 222 213 210 218 224 238 220 244 247 253 248 261 165 170 183 194 189 184 180 172 162 161 158 159 149 147 150 147 133 124 111 93 90 84 85 73
222 197 213 206 215 195 206 223 214 214 220 227 223 236 212 242 234 239 246 238 174 197 191 190 188 176 160 168 168 163 159 158 158 157 148 137 128 121 109 93 77 65 73
219 205 225 209 202 210 208 221 216 217 210 221 218 234 216 246 233 236 241 253 201 213 179 179 180 169 170 172 173 169 162 156 152 146 144 143 139 124 111 104 101 87 78
213 209 228 221 188 217 204 219 220 212 223 211 225 155 184 252 265 239 237 244 263 227 173 167 175 176 176 177 176 167 163 159 156 156 150 146 137 129 118 101 85 77 70
192 218 230 222 202 198 211 211 219 228 211 235 165 106 51 358 278 243 299 266 230 224 175 179 177 182 189 176 174 170 165 164 161 157 147 138 123 108 97 91 81 67 49
177 190 210 229 214 208 225 211 211 221 219 166 192 162 218 248 244 244 267 287 331 350 253 196 188 185 180 175 179 173 172 168 166 154 147 144 135 128 113 99 83 65 61
171 188 199 205 205 209 235 220 205 194 178 192 213 174 154 232 160 169 201 182 192 172 332 315 220 180 182 166 176 180 166 163 167 160 158 156 144 139 127 119 105 67 111
184 182 201 202 204 198 214 230 213 199 156 183 201 205 155 144 191 231 215 202 195 200 199 217 317 197 177 174 164 165 166 166 161 163 164 157 145 136 124 111 96 78 69
184 186 195 206 197 193 206 221 205 195 202 187 181 148 140 114 9 150 231 228 251 212 199 176 173 182 160 154 154 155 160 153 153 160 169 158 149 132 122 110 104 89 76
138 139 136 164 181 196 208 213 213 213 193 203 199 186 175 175 186 175 189 194 208 216 205 191 191 180 165 159 161 156 153 147 150 156 166 160 145 131 120 117 102 87 71
148 153 158 170 177 186 181 183 191 202 205 206 205 211 213 216 179 202 163 140 182 172 196 235 216 203 181 168 161 154 150 149 150 161 177 136 129 120 119 115 97 92 80
166 153 168 173 152 166 171 184 206 214 212 223 224 214 215 223 198 195 180 151 162 192 187 208 207 196 201 170 164 148 146 146 153 138 124 122 120 124 125 119 107 94 79
130 137 152 159 166 171 179 198 219 233 229 234 239 245 240 228 210 203 190 190 186 186 217 193 177 187 193 163 159 143 134 129 124 120 121 124 126 126 128 125 111 101 93
143 150 163 171 166 166 192 225 262 278 268 267 294 272 260 241 230 210 206 200 204 211 225 163 197 185 165 141 143 132 138 131 131 132 133 132 132 131 130 121 108 99 89
157 154 150 151 159 172 164 256 268 283 277 272 253 260 271 257 251 228 206 198 204 187 190 158 140 162 153 151 143 136 141 132 138 139 138 134 136 131 130 118 110 105 99
125 127 131 130 131 131 126 251 283 279 280 276 276 278 266 243 242 228 206 205 206 202 135 119 109 148 134 135 126 128 134 131 135 140 133 132 133 132 133 120 119 117 103
125 122 119 105 58 26 353 319 283 282 277 267 260 253 250 245 233 214 212 212 208 133 140 146 145 169 163 154 141 132 131 127 131 139 136 140 138 139 132 134 135 120 112
107 92 78 77 99 21 317 311 297 288 293 286 280 277 265 255 248 236 221 215 213 192 164 157 144 145 150 147 132 134 133 142 141 144 147 149 141 141 148 152 139 122 106
31 37 46 314 296 339 307 302 294 288 279 279 281 270 260 252 250 262 249 232 189 173 164 151 149 155 158 159 161 153 143 140 140 152 146 146 145 156 164 158 136 117 122
146 290 278 292 320 293 338 268 278 293 295 276 268 256 246 249 258 269 262 251 211 187 183 174 168 176 176 172 150 155 150 151 143 166 149 163 170 175 174 164 142 146 145
290 269 269 268 274 278 198 233 247 266 268 263 261 257 254 234 223 233 240 258 260 245 198 183 181 189 176 172 153 159 166 165 153 152 159 170 180 167 168 131 147 154 157
236 276 285 283 282 275 204 236 252 269 262 256 252 258 258 245 230 217 222 217 206 238 270 233 193 183 185 174 170 170 166 154 126 152 161 150 173 153 142 145 153 158 168
298 289 271 270 270 252 258 243 240 246 234 235 232 233 239 248 241 217 206 228 221 163 128 177 240 172 174 174 163 143 158 151 147 164 180 130 152 120 106 146 158 171 171
278 274 274 273 260 269 253 252 244 243 242 251 230 228 231 235 234 215 212 207 214 202 153 124 118 148 163 172 166 165 160 158 145 134 186 135 143 145 153 162 166 173 180